Regional Weather Roundup
Issued by NWS

Home | Current Version | Previous Version | Text Only | Print | Product List | Glossary Off
Versions: 1 2 3 4 5 6 7 8 9 10 11 12 13 14 15 16 17 18 19 20 21 22 23 24 25 26 27 28 29 30 31 32 33 34 35 36 37 38 39 40 41 42 43 44 45 46 47 48 49 50

647
ASUS43 KMPX 240701
RWRMN
WEATHER ROUNDUP FOR MINNESOTA
NATIONAL WEATHER SERVICE TWIN CITIES/CHANHASSEN MN
200 AM CDT TUE APR 24 2018


NOTE: "FAIR" INDICATES FEW OR NO CLOUDS BELOW 12,000 FEET WITH NO
SIGNIFICANT WEATHER AND/OR OBSTRUCTIONS TO VISIBILITY. N/A MEANS
CURRENT SKY AND/OR WEATHER CONDITIONS ARE NOT AVAILABLE.

MNZ060>063-068>070-240800-
   Twin Cities Metro

CITY           SKY/WX    TMP DP  RH WIND       PRES   REMARKS
TWIN CITIES    FAIR      51  40  65 CALM      30.13F
ST PAUL        FAIR      47  40  76 CALM      30.14S
CRYSTAL        FAIR      46  37  71 CALM      30.12F
BLAINE         FAIR      45  37  76 CALM      30.13S
LAKEVILLE      FAIR      39  37  93 CALM      30.13F
EDEN PRAIRIE   FAIR      49  38  65 CALM      30.13S
SOUTH ST PAUL  FAIR      47  37  67 CALM      30.13S
LAKE ELMO      FAIR      41  37  87 CALM      30.14S
$$
MNZ001>005-007-008-013>017-022>024-027-028-240800-
   Northwest Minnesota

CITY           SKY/WX    TMP DP  RH WIND       PRES   REMARKS
BEMIDJI        FAIR      33  28  81 NW3       30.18R
HALLOCK        MOCLDY    45  34  65 N12       30.26R
ROSEAU         CLOUDY    45  36  70 N6        30.23R
WARROAD        CLOUDY    45  34  65 NW6       30.23R
THIEF RVR FALL CLOUDY    46  35  65 N10       30.23R
CROOKSTON      CLOUDY    45  37  76 N13       30.24R
FOSSTON        MOCLDY    39  34  81 NW6       30.21R
DETROIT LAKES  FAIR      46  34  61 CALM      30.19S
MOORHEAD       LGT RAIN  48  39  71 N10       30.22R
PARK RAPIDS    FAIR      38  32  79 CALM      30.17S
MAHNOMEN       CLOUDY    45  35  68 N10       30.19S
$$
MNZ006-009>011-018-025>026-240800-
   North Central Minnesota

CITY           SKY/WX    TMP DP  RH WIND       PRES   REMARKS
BAUDETTE       FAIR      39  30  70 N8        30.19S
FLAG ISLAND    FAIR      37  28  70 N5        30.21S
INTL FALLS     FAIR      33  29  85 N3        30.18R
WASKISH        FAIR      36  28  75 CALM      30.19R
BIG FORK       FAIR      32  27  80 CALM      30.17F
LONGVILLE      FAIR      36  30  80 CALM      30.17S
GRAND RAPIDS   FAIR      39  29  67 CALM      30.19R
CRANE LAKE     FAIR      27  25  93 CALM      30.20S
ORR            FAIR      30  25  80 CALM      30.15S
COOK           FAIR      32  27  80 CALM      30.17S
WALKER         FAIR      38  29  71 CALM      30.17S
$$
MNZ012-019>021-037-240800-
   Northeast Minnesota

CITY           SKY/WX    TMP DP  RH WIND       PRES   REMARKS
DULUTH         FAIR      49  29  46 N10       30.13S
ELY            FAIR      32  27  80 CALM      30.16S
HIBBING        FAIR      36  27  69 NW5       30.16R
EVELETH        FAIR      45  28  51 NE3       30.16S
DULUTH HARBOR  FAIR      46  34  61 CALM      30.14R
TWO HARBORS    FAIR      54  34  47 N6        30.11R
SILVER BAY     FAIR      52  28  40 N5        30.11R
GRAND MARAIS     N/A     51  29  42 N16G28    30.09S
G MARAIS ARPRT FAIR      43  25  49 N13G18    30.14R
$$
MNZ029>031-032-039>041-046>048-054>057-064-240800-
   West Central Minnesota

CITY           SKY/WX    TMP DP  RH WIND       PRES   REMARKS
FERGUS FALLS   CLOUDY    52  36  54 NE7       30.15R
WHEATON        CLOUDY    50  43  76 CALM      30.19S
MORRIS         CLOUDY    50  39  66 N3        30.15R
ALEXANDRIA     FAIR      51  34  52 NE9       30.16F
ELBOW LAKE     CLOUDY    49  36  58 NE8       30.16S
WADENA         FAIR      45  34  65 N5        30.16F
GLENWOOD       FAIR      50  36  57 N8        30.16S
APPLETON       CLEAR     43  37  81 CALM      30.15R
BENSON         CLEAR     48  37  66 CALM      30.16S
ORTONVILLE     CLOUDY    48  43  81 N6        30.15S
MADISON        CLEAR     48  45  87 CALM      30.15S
WILLMAR        FAIR      45  39  81 NW3       30.17S
$$
MNZ033>034-036-042>043-049>051-058-059-240800-
   Central Minnesota

CITY           SKY/WX    TMP DP  RH WIND       PRES   REMARKS
ST CLOUD       FAIR      43  38  82 CALM      30.13S
SAUK CENTRE    FAIR      48  35  59 N5        30.15F
PAYNESVILLE    FAIR      40  37  90 CALM      30.15F
AITKIN         FAIR      36  30  80 CALM      30.14S
PINE RIVER     FAIR      43  28  56 CALM      30.19F
BRAINERD       FAIR      44  30  57 N5        30.16S
STAPLES        FAIR      45  30  57 CALM      30.16F
LONG PRAIRIE   FAIR      46  34  61 NW7       30.16S
LITTLE FALLS   FAIR      46  27  46 CALM      30.15S
LITCHFIELD     FAIR      43  39  87 CALM      30.15S
BUFFALO        FAIR      42  39  86 CALM      30.14F
MAPLE LAKE     FAIR      40  38  92 CALM      30.15S
HUTCHINSON     FAIR      44  43  97 CALM      30.15S
$$
MNZ037-044-045-052-053-240800-
   East Central Minnesota

CITY           SKY/WX    TMP DP  RH WIND       PRES   REMARKS
PRINCETON      FAIR      39  36  87 CALM      30.13F
MORA           MOCLDY    36  34  93 CALM      30.16R
CAMBRIDGE      FAIR      41  32  70 CALM      30.14S
RUSH CITY      FAIR      40  37  91 CALM      30.13S
MOOSE LAKE     FAIR      37  32  81 CALM      30.13S
HINCKLEY       FAIR      41  34  75 CALM      30.13S
CLOQUET        FAIR      46  27  46 NW7       30.14S
MCGREGOR       FAIR      43  32  65 N3        30.16S
$$
MNZ071>073-080-081-089-090-097-098-240800-
   Southwest Minnesota

CITY           SKY/WX    TMP DP  RH WIND       PRES   REMARKS
MONTEVIDEO     CLEAR     46  37  71 CALM      30.15S
GRANITE FALLS  CLEAR     42  40  93 W3        30.16S
CANBY          CLOUDY    44  39  81 CALM      30.16S
MARSHALL       CLEAR     44  37  76 S5        30.15S
REDWOOD FALLS  CLEAR     49  41  74 NW5       30.15R
OLIVIA         CLEAR     46  41  81 CALM      30.14S
PIPESTONE      CLEAR    N/A N/A N/A SE5       30.15R
WINDOM         CLEAR     43  28  56 CALM      30.15F
WORTHINGTON    CLOUDY    44  39  82 E3        30.16S
JACKSON        CLEAR     46  36  66 CALM      30.16S
TRACY          CLEAR     48  40  73 SW7       30.14S
SLAYTON        CLEAR     40  37  87 CALM      30.16S
$$
MNZ065>067-074>077-082>085-091>093-240800-
   South Central Minnesota

CITY           SKY/WX    TMP DP  RH WIND       PRES   REMARKS
MANKATO        FAIR      49  41  74 CALM      30.15S
NEW ULM        CLEAR     45  39  81 W5        30.15R
ST JAMES       CLEAR     45  39  81 SW3       30.16S
FAIRMONT       CLEAR     43  37  79 CALM      30.16R
GLENCOE        FAIR      45  45 100 CALM      30.13S
OWATONNA       FAIR      43  39  87 CALM      30.14S
WASECA         FAIR      43  37  81 CALM      30.15F
ALBERT LEA     FAIR      43  37  81 CALM      30.14S
$$
MNZ078>079-086>088-094>096-240800-
   Southeast Minnesota

CITY           SKY/WX    TMP DP  RH WIND       PRES   REMARKS
ROCHESTER      FAIR      47  37  68 NW8       30.14S
RED WING       FAIR      39  30  70 CALM      30.12F
STANTON        FAIR      40  37  89 S3        30.13S
DODGE CENTER   FAIR      45  37  76 CALM      30.14S
WINONA         FAIR      41  34  75 CALM      30.12S
AUSTIN         FAIR      43  37  81 CALM      30.13S
PRESTON        FAIR      48  33  55 CALM      30.14S
$$
ABBREVIATIONS USED IN REMARKS
   TC - TEMPERATURES IN CELSIUS
  WCI - WIND CHILL INDEX
   HX - HEAT INDEX
  VSB - VISIBILITY
$$




USA.gov is the U.S. government's official web portal to all federal, state and local government web resources and services.